Regional Weather Roundup
Issued by NWS San Angelo, TX

Home | Current Version | Previous Version | Text Only | Print | Product List | Glossary On
Versions: 1 2 3 4 5 6 7 8 9 10 11 12 13 14 15 16 17 18 19 20 21 22 23 24 25 26 27 28 29 30 31 32 33 34 35 36 37 38 39 40 41 42 43 44 45 46 47 48 49 50
000
ASUS44 KSJT 031502
RWRSJT
WEST CENTRAL TEXAS REGIONAL WEATHER ROUNDUP
NATIONAL WEATHER SERVICE SAN ANGELO TX
1000 AM CDT SUN MAY 03 2015

NOTE: "FAIR" INDICATES FEW OR NO CLOUDS BELOW 12,000 FEET WITH NO
SIGNIFICANT WEATHER AND/OR OBSTRUCTIONS TO VISIBILITY.

TXZ049-054-064>066-071>073-076>078-098-099-113-114-127-128-139-140-
154-155-168>170-031600
...LOCATIONS ACROSS WEST CENTRAL TEXAS...

CITY           SKY/WX    TMP DP  RH WIND       PRES   REMARKS
SAN ANGELO     MOSUNNY   71  58  63 S20       30.00R
ABILENE        SUNNY     69  58  67 SW18G24   30.01S
DYESS AFB      MOSUNNY   68  58  72 SW17G24   29.99S
JUNCTION       PTSUNNY   69  58  67 S15G22    30.01S
SWEETWATER     SUNNY     66  56  70 S16       30.04S
BROWNWOOD      NOT AVBL
COLEMAN        NOT AVBL
SONORA         NOT AVBL
OZONA          NOT AVBL
BRADY          NOT AVBL
$$

TEXAS PANHANDLE/OKLAHOMA PANHANDLE

CITY           SKY/WX    TMP DP  RH WIND       PRES   REMARKS
AMARILLO       SUNNY     63  48  58 NW8       29.97R
BORGER         SUNNY     73  46  38 SW10G17   29.92R
CANADIAN       NOT AVBL
DALHART        MOSUNNY   72  47  40 SW8       29.96R
DUMAS          NOT AVBL
GUYMON         NOT AVBL
HEREFORD       NOT AVBL
PAMPA          NOT AVBL
PERRYTON       NOT AVBL
$$

SOUTHERN PANHANDLE/SOUTH PLAINS/ROLLING PLAINS

CITY           SKY/WX    TMP DP  RH WIND       PRES   REMARKS
LUBBOCK        MOSUNNY   69  48  47 S13       29.97R
SNYDER         NOT AVBL
CHILDRESS      SUNNY     70  50  49 S20       29.93S
SEMINOLE       NOT AVBL
$$

PERMIAN BASIN

CITY           SKY/WX    TMP DP  RH WIND       PRES   REMARKS
MIDLAND        SUNNY     68  54  60 S15       29.98R
ODESSA         MOSUNNY   67  51  56 S17       29.98F
WINK           MOSUNNY   66  48  52 SE13      29.95R
$$

FAR WEST/SOUTHWEST MOUNTAINS/TRANS PECOS

CITY           SKY/WX    TMP DP  RH WIND       PRES   REMARKS
ALPINE         NOT AVBL
DRYDEN           N/A     65  59  81 E12       29.98R
EL PASO        MOSUNNY   73  38  27 S6        29.98R
FORT STOCKTON  MOSUNNY   71  50  47 SE8       29.96R
GUADALUPE PASS NOT AVBL
MARFA          SUNNY     70  46  43 S6        30.08R
PECOS          NOT AVBL
$$

DALLAS/FORT WORTH METROPLEX

CITY           SKY/WX    TMP DP  RH WIND       PRES   REMARKS
DFW AIRPORT    PTSUNNY   69  58  67 S10       30.01R
FTW MEACHAM    MOSUNNY   70  59  68 S8        30.01R
DAL-EXECUTIVE  SUNNY     70  58  65 VRB6      30.02R
GRAND PRAIRIE  SUNNY     70  59  68 S6        30.03S
ADDISON        MOSUNNY   72  55  56 S8        30.03R
MESQUITE       SUNNY     70  59  68 S10       30.04R
LANCASTER      SUNNY     68  57  66 S13       30.04S
$$

NORTH CENTRAL TEXAS

CITY           SKY/WX    TMP DP  RH WIND       PRES   REMARKS
SHRMAN/DENISON SUNNY     73  62  68 SW10      30.03R
GAINESVILLE    NOT AVBL
BRIDGEPORT     MOSUNNY   70  60  70 S9        30.02S
DENTON         MOSUNNY   72  59  63 S10       30.01R
WAXAHACHIE     SUNNY     69  60  74 S8        30.04S
GRANBURY         N/A     71  58  63 S3        30.03R
$$

WESTERN NORTH TEXAS

CITY           SKY/WX    TMP DP  RH WIND       PRES   REMARKS
WICHITA FALLS  SUNNY     70  58  65 S15       29.98R
VERNON         NOT AVBL
BRECKENRIDGE   SUNNY     71  57  62 S14       29.99F
COMANCHE       SUNNY     69  61  77 S12       30.02S
$$

CENTRAL AND SOUTH CENTRAL TEXAS

CITY           SKY/WX    TMP DP  RH WIND       PRES   REMARKS
AUSTIN/BERGSTM MOSUNNY   70  61  73 S8        30.04R
WACO           SUNNY     70  59  68 S10       30.04R
HILLSBORO      NOT AVBL
TEMPLE         SUNNY     70  55  60 S10       30.04R
KILLEEN-GRAY   SUNNY     72  59  64 S10G18    30.02R
FORT HOOD      NOT AVBL
GEORGETOWN     SUNNY     72  59  64 CALM      30.03R
LAGO VISTA     FAIR      72  58  62 S7        30.04S
SAN MARCOS     MOSUNNY   70  61  73 S9        30.05R
NEW BRAUNFELS  MOSUNNY   72  63  73 S9        30.03R
RANDOLPH AFB   PTSUNNY   71  64  77 S9G17     30.04R
SAN ANTONIO    PTSUNNY   71  62  73 S9        30.04R
STINSON        PTSUNNY   71  63  75 SE6       30.02R
PLEASANTON     NOT AVBL
LA GRANGE      NOT AVBL
GIDDINGS       SUNNY     70  60  71 S5        30.08F
$$

EAST TEXAS

CITY           SKY/WX    TMP DP  RH WIND       PRES   REMARKS
PARIS          SUNNY     72  57  60 MISG      30.05S
CLARKSVILLE    NOT AVBL
TYLER          SUNNY     72  57  59 S16G23    30.06R
LONGVIEW       SUNNY     72  59  63 SW10      30.06S
PALESTINE      SUNNY     71  60  67 S7        30.08S
NACOGDOCHES    SUNNY     72  59  64 SW8       30.09R
$$

TEXAS HILL COUNTRY AND EDWARDS PLATEAU

CITY           SKY/WX    TMP DP  RH WIND       PRES   REMARKS
LLANO          NOT AVBL
HORSESHOE BAY  FAIR      72  58  60 S9G16     30.03S
KERRVILLE      NOT AVBL
FREDERICKSBRG  NOT AVBL
ROCKSPRINGS    NOT AVBL
HONDO          CLOUDY    68  63  84 SE9       30.05R
UVALDE         CLOUDY    67  63  86 SE9       30.03S
DEL RIO        CLOUDY    65  62  90 SE10      29.99R FOG
$$

SOUTHEAST TEXAS

CITY           SKY/WX    TMP DP  RH WIND       PRES   REMARKS
COLLEGE STN    SUNNY     71  59  65 S9        30.06R
CALDWELL       NOT AVBL
CROCKETT       NOT AVBL
BRENHAM        SUNNY     72  63  73 S3        30.06S
HUNTSVILLE     MOSUNNY   73  59  61 S10       30.07R
CONROE         SUNNY     73  59  61 SE8       30.07S
HOUSTON BUSH   MOSUNNY   75  62  64 SE9       30.07R
HOUSTON HOBBY  PTSUNNY   77  63  61 S10       30.06R
PERLAND        MOSUNNY   76  62  62 S9        30.08R
WHARTON        NOT AVBL
$$

THE UPPER TEXAS COAST

CITY           SKY/WX    TMP DP  RH WIND       PRES   REMARKS
ORANGE         PTSUNNY   76  57  51 S9        30.11R
PORT ARTHUR    SUNNY     77  59  53 S9        30.09R
GALVESTON      SUNNY     77  64  64 SE12      30.08R
ANGLETON       MOSUNNY   75  64  68 SE9       30.06R
BAY CITY       NOT AVBL
$$

TEXAS COASTAL BEND, RIO GRANDE PLAINS DEEP SOUTH TEXAS

CITY           SKY/WX    TMP DP  RH WIND       PRES   REMARKS
VICTORIA       SUNNY     76  68  76 S14       30.04R
BEEVILLE       PTSUNNY   75  69  81 SE10G16   30.02R
ROCKPORT       PTSUNNY   78  65  63 SE15      30.02R
PORT ARANSAS   CLOUDY    75  69  79 SE13      30.02R
PORT LAVACA    PTSUNNY   76  67  72 SE12      30.04R
CORPUS CHRISTI PTSUNNY   77  67  71 SE10      30.01R
KINGSVILLE NAS MOSUNNY   80  70  71 SE15      30.00S
COTULLA        MOSUNNY   73  63  70 SE12G18   30.00S
LAREDO         PTSUNNY   76  67  73 SE16      30.00R
BROWNSVILLE    CLOUDY    79  68  69 SE15      29.98R
PORT ISABEL    PTSUNNY   80  67  64 SE14      29.98R
HEBBRONVILLE   NOT AVBL
MCALLEN        CLOUDY    78  69  73 SE10      29.98R
WESLACO        NOT AVBL
FALFURRIAS     PTSUNNY   78  67  70 SE10      29.99S
EDINBURG       PTSUNNY   78  68  70 SE10      29.99R
$$



USA.gov is the U.S. government's official web portal to all federal, state and local government web resources and services.